1488988800.55,21637,11.69,73572.8,-4.61,-33.15,-33.15,0,*52
1488988801.8,21638,11.69,73568.0,-4.61,-32.97,-33.09,0,*5B
1488988803.05,21639,11.69,73566.8,-4.63,-33.15,-33.31,0,*58
1488988804.3,21640,11.69,73574.8,-4.63,-33.21,-33.31,0,*51
1488988805.52,21641,11.69,73572.0,-4.63,-33.03,-33.21,0,*51
1488988806.75,21642,11.69,73568.0,-4.61,-32.97,-33.15,0,*5B
1488988807.97,21643,11.69,73564.8,-4.63,-33.15,-33.21,0,*54
1488988809.23,21644,11.69,73560.0,-4.63,-33.31,-33.37,0,*52
1488988810.48,21645,11.69,73562.0,-4.63,-33.21,-33.31,0,*54
1488988811.73,21646,11.69,73562.8,-4.63,-33.31,-33.37,0,*50
1488988812.97,21647,11.69,73566.3,-4.63,-33.37,-33.37,0,*57
1488988814.17,21648,11.69,73566.0,-4.61,-33.15,-33.21,0,*5D
1488988815.42,21649,11.69,73568.8,-4.63,-33.67,-33.73,0,*5C
1488988816.64,21650,11.69,73570.3,-4.63,-33.55,-33.67,0,*50
1488988817.9,21651,11.69,73564.0,-4.63,-33.37,-33.49,0,*59
1488988819.12,21652,11.69,73564.0,-4.63,-33.55,-33.55,0,*53
1488988820.35,21653,11.69,73566.3,-4.63,-33.37,-33.67,0,*57
1488988821.59,21654,11.69,73568.8,-4.63,-33.55,-33.73,0,*51
1488988822.8,21655,11.69,73564.0,-4.65,-33.55,-33.55,0,*52
1488988824.03,21656,11.69,73566.5,-4.65,-33.49,-33.55,0,*5C
1488988825.28,21657,11.69,73570.5,-4.67,-33.55,-33.61,0,*55
1488988826.53,21658,11.69,73568.3,-4.67,-33.55,-33.73,0,*59
1488988827.76,21659,11.69,73570.8,-4.65,-33.49,-33.55,0,*53
1488988829.0,21660,11.69,73568.5,-4.67,-33.37,-33.55,0,*52
1488988830.25,21661,11.69,73568.3,-4.65,-33.31,-33.31,0,*55
1488988831.48,21662,11.69,73568.0,-4.69,-33.21,-33.37,0,*5D
1488988832.72,21663,11.69,73564.0,-4.67,-33.21,-33.37,0,*52
1488988833.92,21664,11.69,73566.3,-4.65,-33.03,-33.15,0,*57
1488988835.21,21665,11.69,73562.8,-4.67,-33.09,-33.27,0,*5F
1488988836.49,21666,11.69,73566.8,-4.67,-33.27,-33.27,0,*50
1488988837.78,21667,11.69,73566.0,-4.67,-33.27,-33.43,0,*53
1488988839.01,21668,11.69,73562.3,-4.67,-33.21,-33.37,0,*59
1488988840.24,21669,11.69,73566.0,-4.67,-33.21,-33.21,0,*5F
1488988841.5,21670,11.69,73562.0,-4.67,-33.09,-33.21,0,*5D
1488988842.73,21671,11.69,73562.8,-4.67,-32.91,-33.03,0,*5C
1488988844.01,21672,11.69,73564.0,-4.67,-33.09,-33.09,0,*55
1488988845.27,21673,11.69,73564.0,-4.67,-33.09,-33.21,0,*5E
1488988846.5,21674,11.69,73566.3,-4.67,-33.21,-33.21,0,*53
1488988847.7,21675,11.69,73568.5,-4.65,-33.03,-33.15,0,*57
1488988848.94,21676,11.69,73568.0,-4.67,-33.21,-33.21,0,*51
1488988850.19,21677,11.69,73566.5,-4.67,-33.27,-33.37,0,*51
1488988851.48,21678,11.69,73564.5,-4.67,-33.27,-33.27,0,*5F
1488988852.71,21679,11.69,73566.3,-4.67,-33.55,-33.55,0,*5E
1488988853.95,21680,11.69,73566.5,-4.69,-33.43,-33.55,0,*51
1488988855.2,21681,11.69,73564.5,-4.71,-33.31,-33.61,0,*5B
1488988856.43,21682,11.69,73562.0,-4.69,-33.37,-33.37,0,*54
1488988857.69,21683,11.69,73564.0,-4.71,-33.09,-33.27,0,*50
1488988858.92,21684,11.69,73566.5,-4.69,-33.03,-33.21,0,*52
1488988860.14,21685,11.69,73568.0,-4.71,-33.15,-33.27,0,*5B
1488988861.37,21686,11.69,73570.5,-4.71,-33.15,-33.27,0,*58
1488988862.62,21687,11.69,73564.8,-4.71,-32.79,-32.97,0,*58
1488988863.87,21688,11.69,73564.0,-4.69,-32.85,-33.03,0,*51
1488988865.09,21689,11.69,73564.5,-4.71,-32.97,-33.15,0,*5D
1488988866.33,21690,11.69,73564.0,-4.69,-32.69,-32.91,0,*50
1488988867.56,21691,11.69,73564.5,-4.71,-32.69,-32.79,0,*5E
1488988868.82,21692,11.69,73568.3,-4.69,-32.75,-32.91,0,*5F
1488988870.04,21693,11.69,73566.8,-4.69,-32.91,-33.03,0,*5E
1488988871.29,21694,11.69,73564.3,-4.71,-33.09,-33.27,0,*56
1488988872.52,21695,11.69,73562.8,-4.71,-33.15,-33.27,0,*5A
1488988873.77,21696,11.69,73562.8,-4.71,-33.09,-33.09,0,*58
1488988874.99,21697,11.69,73564.5,-4.69,-32.91,-33.03,0,*5A
1488988876.25,21698,11.69,73564.0,-4.69,-32.85,-32.91,0,*5A
1488988877.5,21699,11.69,73564.8,-4.69,-32.75,-33.03,0,*5E
1488988878.73,21700,11.69,73566.5,-4.71,-32.97,-33.15,0,*5D
1488988879.98,21701,11.69,73564.0,-4.69,-32.85,-32.91,0,*5B
1488988881.23,21702,11.69,73564.0,-4.69,-32.85,-33.03,0,*52
1488988882.49,21703,11.69,73566.0,-4.69,-32.75,-33.03,0,*5C
1488988883.74,21704,11.69,73560.0,-4.71,-32.79,-32.97,0,*52
1488988885.0,21705,11.69,73566.8,-4.69,-32.69,-32.85,0,*58
1488988886.23,21706,11.69,73564.3,-4.71,-32.57,-32.75,0,*50
1488988887.47,21707,11.69,73566.5,-4.71,-32.69,-32.79,0,*50
1488988888.73,21708,11.69,73570.0,-4.69,-32.69,-32.85,0,*55
1488988889.98,21709,11.69,73564.8,-4.69,-32.85,-32.91,0,*53
1488988891.2,21710,11.69,73570.0,-4.71,-32.97,-33.15,0,*5C
1488988892.46,21711,11.69,73564.8,-4.71,-32.79,-33.09,0,*50
1488988893.71,21712,11.69,73566.5,-4.71,-32.79,-32.97,0,*55
1488988894.96,21713,11.69,73566.8,-4.69,-32.85,-32.91,0,*58
1488988896.22,21714,11.69,73566.8,-4.69,-32.75,-32.91,0,*50
1488988897.45,21715,11.69,73568.8,-4.69,-32.69,-32.91,0,*5C
1488988898.72,21716,11.69,73568.3,-4.69,-32.69,-32.75,0,*55
1488988899.95,21717,11.69,73570.8,-4.69,-32.69,-32.91,0,*5E
1488988901.2,21718,11.69,73568.8,-4.69,-32.91,-33.09,0,*56
1488988902.42,21719,11.69,73566.8,-4.71,-32.97,-33.15,0,*55
1488988903.62,21720,11.69,73568.3,-4.71,-32.91,-33.15,0,*59
1488988904.84,21721,11.69,73570.0,-4.71,-32.91,-33.09,0,*55
1488988906.09,21722,11.69,73564.0,-4.69,-32.91,-33.09,0,*5F
1488988907.31,21723,11.69,73566.8,-4.71,-33.09,-33.15,0,*5A
1488988908.53,21724,11.69,73566.3,-4.71,-32.97,-33.15,0,*5B
1488988909.81,21725,11.69,73570.8,-4.73,-32.97,-33.09,0,*55
1488988911.06,21726,11.69,73568.0,-4.73,-32.97,-33.15,0,*5B
1488988912.31,21727,11.69,73568.0,-4.71,-33.27,-33.31,0,*54
1488988913.54,21728,11.69,73570.5,-4.71,-33.15,-33.27,0,*5D
1488988914.79,21729,11.69,73574.3,-4.71,-33.27,-33.31,0,*5A
1488988916.07,21730,11.69,73572.5,-4.73,-33.27,-33.31,0,*50
1488988917.35,21731,11.69,73566.8,-4.73,-33.27,-33.31,0,*51
1488988918.63,21732,11.69,73566.8,-4.73,-33.31,-33.49,0,*5A
1488988919.91,21733,11.69,73570.8,-4.73,-33.43,-33.49,0,*5E
1488988921.16,21734,11.69,73566.0,-4.73,-33.61,-33.67,0,*55
1488988922.44,21735,11.69,73568.0,-4.73,-33.49,-33.61,0,*58
1488988923.69,21736,11.69,73564.5,-4.77,-32.97,-33.15,0,*5E
1488988924.92,21737,11.69,73566.8,-4.73,-32.91,-33.15,0,*5D
1488988926.2,21738,11.69,73566.8,-4.77,-32.85,-32.97,0,*58
1488988927.48,21739,11.69,73568.0,-4.77,-32.75,-32.97,0,*56
1488988928.75,21740,11.69,73570.8,-4.73,-32.69,-32.75,0,*5D
1488988930.04,21741,11.69,73568.0,-4.77,-32.75,-32.85,0,*5A
1488988931.3,21742,11.69,73570.5,-4.73,-32.69,-32.79,0,*53
1488988932.54,21743,11.69,73568.0,-4.73,-32.57,-32.91,0,*59
1488988933.77,21744,11.69,73570.3,-4.73,-32.69,-32.91,0,*53
1488988935.06,21745,11.69,73574.0,-4.77,-32.75,-32.79,0,*5D
1488988936.32,21746,11.69,73568.5,-4.77,-32.79,-33.03,0,*5E
1488988937.55,21747,11.69,73566.5,-4.77,-33.15,-33.21,0,*54
1488988938.81,21748,11.69,73568.3,-4.77,-33.15,-33.31,0,*5A
1488988940.03,21749,11.69,73568.0,-4.73,-32.91,-33.15,0,*54
1488988941.27,21750,11.69,73572.5,-4.77,-33.03,-33.21,0,*55
1488988942.49,21751,11.69,73564.0,-4.77,-33.15,-33.21,0,*53
1488988943.75,21752,11.69,73566.0,-4.77,-33.15,-33.31,0,*51
1488988944.98,21753,11.69,73568.0,-4.79,-33.09,-33.21,0,*52
1488988946.27,21754,11.69,73564.3,-4.77,-32.75,-32.85,0,*5E
1488988947.56,21755,11.69,73568.0,-4.77,-32.75,-32.79,0,*5C
1488988948.79,21756,11.69,73570.5,-4.79,-32.69,-33.09,0,*5A
1488988950.02,21757,11.69,73572.0,-4.79,-32.63,-33.03,0,*5B
1488988951.23,21758,11.69,73570.0,-4.79,-32.69,-33.03,0,*5E
1488988952.44,21759,11.69,73566.8,-4.79,-33.03,-33.37,0,*55
1488988953.67,21760,11.69,73568.0,-4.79,-33.03,-33.27,0,*5E
1488988954.87,21761,11.69,73568.3,-4.79,-32.91,-33.21,0,*53
1488988956.13,21762,11.69,73572.5,-4.79,-32.79,-32.85,0,*59
1488988957.37,21763,11.69,73570.8,-4.79,-32.69,-32.85,0,*59
1488988958.65,21764,11.69,73568.0,-4.81,-32.85,-33.09,0,*5E
1488988959.88,21765,11.69,73568.0,-4.79,-33.09,-33.21,0,*57
1488988961.11,21766,11.69,73566.3,-4.81,-33.21,-33.21,0,*59
1488988962.36,21767,11.69,73570.5,-4.81,-33.03,-33.09,0,*52
1488988963.62,21768,11.69,73574.0,-4.81,-32.91,-32.85,0,*52
1488988964.88,21769,11.69,73570.8,-4.81,-32.85,-32.91,0,*53
1488988966.14,21770,11.69,73570.0,-4.81,-33.21,-33.43,0,*5A
1488988967.38,21771,11.69,73564.3,-4.81,-33.21,-33.37,0,*58
1488988968.63,21772,11.69,73570.8,-4.81,-33.03,-33.09,0,*56
1488988969.89,21773,11.69,73564.0,-4.81,-32.85,-33.21,0,*52
1488988971.17,21774,11.69,73566.0,-4.81,-33.09,-33.27,0,*56
1488988972.46,21775,11.69,73570.8,-4.81,-32.85,-32.85,0,*5B
1488988973.68,21776,11.69,73568.3,-4.83,-32.91,-32.97,0,*5C
1488988974.92,21777,11.69,73564.5,-4.83,-33.15,-33.43,0,*58
1488988976.12,21778,11.69,73566.8,-4.83,-33.15,-33.15,0,*54
1488988977.38,21779,11.69,73568.0,-4.83,-33.27,-33.31,0,*52
1488988978.63,21780,11.69,73564.3,-4.85,-33.15,-33.31,0,*53
1488988979.92,21781,11.69,73560.0,-4.85,-33.27,-33.43,0,*56
1488988981.21,21782,11.69,73562.8,-4.85,-33.31,-33.43,0,*52
1488988982.49,21783,11.69,73560.8,-4.85,-33.27,-33.43,0,*54
1488988983.72,21784,11.69,73564.0,-4.83,-33.15,-33.31,0,*51
1488988984.96,21785,11.69,73572.3,-4.85,-32.91,-32.51,0,*5C
1488988986.16,21786,11.69,73568.0,-4.83,-32.35,-32.39,0,*59
1488988987.42,21787,11.69,73566.8,-4.85,-32.19,-32.35,0,*5C
1488988988.64,21788,11.69,73570.8,-4.85,-32.35,-32.35,0,*5D
1488988989.88,21789,11.69,73568.5,-4.85,-32.69,-32.57,0,*51
1488988991.17,21790,11.69,73570.5,-4.85,-32.75,-32.75,0,*54
1488988992.46,21791,11.69,73568.0,-4.85,-32.85,-32.85,0,*55
1488988993.75,21792,11.69,73566.8,-4.85,-32.85,-32.85,0,*56
1488988995.01,21793,11.69,73570.3,-4.83,-32.85,-32.75,0,*5E
1488988996.26,21794,11.69,73566.8,-4.85,-32.91,-32.97,0,*56
1488988997.55,21795,11.69,73570.5,-4.85,-33.09,-33.27,0,*5D
1488988998.8,21796,11.69,73570.3,-4.85,-33.15,-33.31,0,*54
1488989000.09,21797,11.69,73568.0,-4.85,-33.09,-33.27,0,*5F
1488989001.38,21798,11.69,73570.3,-4.85,-33.31,-33.31,0,*5C
1488989002.61,21799,11.69,73568.0,-4.87,-33.15,-33.31,0,*59
1488989003.84,21800,11.69,73570.8,-4.87,-33.03,-33.31,0,*51
1488989005.04,21801,11.69,73568.0,-4.87,-33.15,-33.21,0,*56
1488989006.28,21802,11.69,73572.5,-4.89,-33.03,-33.15,0,*5B
1488989007.48,21803,11.69,73568.0,-4.87,-33.03,-33.21,0,*53
1488989008.74,21804,11.69,73572.3,-4.87,-33.31,-33.49,0,*5B
1488989009.98,21805,11.69,73572.0,-4.89,-33.21,-33.37,0,*5C
1488989011.18,21806,11.69,73568.5,-4.87,-33.03,-33.21,0,*56
1488989012.42,21807,11.69,73568.0,-4.87,-33.31,-33.37,0,*51
1488989013.68,21808,11.69,73566.5,-4.89,-33.49,-33.55,0,*5B
1488989014.91,21809,11.69,73566.3,-4.89,-33.21,-33.37,0,*50
1488989016.15,21810,11.69,73566.0,-4.89,-33.15,-33.37,0,*5F
1488989017.41,21811,11.69,73568.3,-4.89,-33.03,-33.31,0,*5F
1488989018.66,21812,11.69,73568.3,-4.89,-32.97,-33.15,0,*56
1488989019.89,21813,11.69,73568.0,-4.89,-33.15,-33.21,0,*5B
1488989021.15,21814,11.69,73568.0,-4.89,-33.15,-33.31,0,*5D
1488989022.38,21815,11.69,73570.8,-4.89,-33.03,-33.21,0,*5A
1488989023.64,21816,11.69,73570.3,-4.89,-32.97,-33.15,0,*52
1488989024.89,21817,11.69,73566.3,-4.89,-32.97,-33.21,0,*54
1488989026.12,21818,11.69,73568.0,-4.89,-33.15,-33.21,0,*50
1488989027.35,21819,11.69,73568.5,-4.89,-32.91,-33.15,0,*5B
1488989028.58,21820,11.69,73568.5,-4.91,-32.79,-33.03,0,*59
1488989029.79,21821,11.69,73568.8,-4.91,-33.03,-33.21,0,*54
1488989031.05,21822,11.69,73570.8,-4.93,-33.03,-33.09,0,*5F
1488989032.31,21823,11.69,73572.5,-4.91,-33.09,-33.27,0,*5A
1488989033.57,21824,11.69,73574.0,-4.91,-33.09,-33.27,0,*5D
1488989034.81,21825,11.69,73570.5,-4.91,-33.21,-33.27,0,*56
1488989036.07,21826,11.69,73572.0,-4.91,-33.27,-33.43,0,*51
1488989037.31,21827,11.69,73572.5,-4.93,-33.21,-33.37,0,*57
1488989038.56,21828,11.69,73570.0,-4.91,-32.97,-33.09,0,*5B
1488989039.82,21829,11.69,73564.5,-4.93,-32.97,-33.03,0,*52
1488989041.08,21830,11.69,73564.0,-4.93,-32.97,-33.03,0,*5A
1488989042.31,21831,11.69,73564.8,-4.91,-32.97,-33.03,0,*59
1488989043.56,21832,11.69,73566.5,-4.91,-32.85,-32.97,0,*55
1488989044.82,21833,11.69,73572.3,-4.91,-32.85,-33.09,0,*52
1488989046.05,21834,11.69,73572.5,-4.91,-32.85,-33.03,0,*5F
1488989047.31,21835,11.69,73568.5,-4.93,-32.97,-33.21,0,*5F
1488989048.54,21836,11.69,73570.3,-4.91,-32.97,-33.21,0,*5E
1488989049.79,21837,11.69,73570.0,-4.91,-32.97,-33.09,0,*55
1488989051.05,21838,11.69,73572.3,-4.93,-32.97,-33.03,0,*52
1488989052.33,21839,11.69,73574.0,-4.93,-32.85,-33.09,0,*5A
1488989053.59,21840,11.69,73574.0,-4.93,-32.97,-33.03,0,*5D
1488989054.87,21841,11.69,73574.8,-4.93,-32.85,-32.97,0,*53
1488989056.13,21842,11.69,73572.5,-4.93,-32.85,-33.03,0,*5C
1488989057.36,21843,11.69,73568.5,-4.91,-32.85,-33.21,0,*5F
1488989058.65,21844,11.69,73572.0,-4.93,-32.79,-32.97,0,*55
1488989059.91,21845,11.69,73572.5,-4.93,-32.85,-33.03,0,*5B
1488989061.19,21846,11.69,73576.3,-4.93,-32.85,-32.97,0,*54
1488989062.47,21847,11.69,73572.5,-4.93,-32.85,-32.97,0,*55
1488989063.76,21848,11.69,73574.0,-4.93,-32.79,-32.85,0,*5A
1488989065.03,21849,11.69,73576.8,-4.91,-32.79,-32.85,0,*59
1488989066.28,21850,11.69,73578.0,-4.91,-32.85,-32.97,0,*51
1488989067.57,21851,11.69,73576.5,-4.93,-32.79,-32.85,0,*52
1488989068.81,21852,11.69,73570.8,-4.91,-32.69,-32.79,0,*51
1488989070.1,21853,11.69,73570.0,-4.93,-32.85,-32.85,0,*53
1488989071.35,21854,11.69,73572.5,-4.91,-32.85,-32.97,0,*55
1488989072.65,21855,11.69,73572.5,-4.93,-32.79,-32.85,0,*56
1488989073.94,21856,11.69,73572.0,-4.89,-32.75,-32.79,0,*51
1488989075.23,21857,11.69,73572.3,-4.93,-32.79,-32.85,0,*54
1488989076.51,21858,11.69,73572.8,-4.93,-32.85,-32.97,0,*5B
1488989077.79,21859,11.69,73572.0,-4.93,-32.97,-33.09,0,*5F
1488989079.04,21860,11.69,73572.0,-4.93,-32.97,-33.03,0,*5F
1488989080.32,21861,11.69,73574.8,-4.93,-32.97,-32.97,0,*52
1488989081.58,21862,11.69,73576.0,-4.91,-32.97,-33.09,0,*55
1488989082.81,21863,11.69,73576.0,-4.91,-32.97,-33.03,0,*5E
1488989084.09,21864,11.69,73576.0,-4.93,-32.85,-32.97,0,*54
1488989085.38,21865,11.69,73568.3,-4.93,-32.85,-32.85,0,*56
1488989086.64,21866,11.69,73572.3,-4.93,-32.69,-32.79,0,*54
1488989087.93,21867,11.69,73572.3,-4.93,-32.85,-32.85,0,*54
1488989089.22,21868,11.69,73574.5,-4.93,-32.85,-32.85,0,*5B
1488989090.5,21869,11.69,73572.3,-4.93,-32.85,-32.97,0,*59
1488989091.79,21870,11.69,73572.5,-4.93,-32.85,-32.85,0,*52
1488989093.08,21871,11.69,73576.3,-4.93,-32.63,-32.85,0,*5B
1488989094.35,21872,11.69,73572.5,-4.93,-32.69,-32.79,0,*51
1488989095.61,21873,11.69,73570.5,-4.93,-32.69,-32.85,0,*53
1488989096.9,21874,11.69,73572.5,-4.93,-32.85,-32.97,0,*55
1488989098.18,21875,11.69,73572.3,-4.93,-32.63,-32.79,0,*5C
1488989099.46,21876,11.69,73570.3,-4.93,-32.85,-32.97,0,*57
1488989100.75,21877,11.69,73572.0,-4.93,-32.79,-32.79,0,*55
1488989102.04,21878,11.69,73572.8,-4.93,-32.79,-32.97,0,*5A
1488989103.33,21879,11.69,73572.8,-4.93,-32.79,-32.85,0,*58
1488989104.59,21880,11.69,73578.3,-4.93,-33.03,-33.09,0,*57
1488989105.84,21881,11.69,73572.8,-4.93,-32.97,-33.03,0,*50
1488989107.1,21882,11.69,73570.3,-4.93,-32.97,-33.03,0,*53
1488989108.35,21883,11.69,73568.0,-4.91,-32.97,-33.09,0,*5A
1488989109.64,21884,11.69,73570.3,-4.93,-32.85,-32.97,0,*5A
1488989110.92,21885,11.69,73568.5,-4.93,-32.85,-32.85,0,*58
1488989112.21,21886,11.69,73570.3,-4.93,-32.85,-32.85,0,*5B
1488989113.45,21887,11.69,73566.5,-4.93,-33.21,-33.37,0,*5D
1488989114.71,21888,11.69,73568.5,-4.93,-33.27,-33.37,0,*54
1488989115.97,21889,11.69,73572.3,-4.91,-33.27,-33.43,0,*54
1488989117.23,21890,11.69,73568.3,-4.93,-33.03,-33.27,0,*5A
1488989118.47,21891,11.69,73570.5,-4.95,-33.03,-33.27,0,*5D
1488989119.72,21892,11.69,73568.0,-4.95,-33.27,-33.49,0,*50
1488989120.94,21893,11.69,73566.0,-4.95,-33.15,-33.49,0,*50
1488989122.2,21894,11.69,73564.3,-4.95,-33.27,-33.43,0,*5C
1488989123.45,21895,11.69,73568.8,-4.95,-33.31,-33.49,0,*50
1488989124.71,21896,11.69,73566.5,-4.97,-33.15,-33.43,0,*5D
1488989126.0,21897,11.69,73568.0,-4.97,-33.27,-33.31,0,*58
1488989127.28,21898,11.69,73564.5,-4.97,-33.31,-33.49,0,*5F
1488989128.57,21899,11.69,73568.0,-4.97,-33.31,-33.43,0,*54
1488989129.86,21900,11.69,73564.0,-4.97,-33.31,-33.43,0,*55
1488989131.12,21901,11.69,73570.0,-4.97,-33.15,-33.31,0,*57
1488989132.41,21902,11.69,73570.0,-4.97,-33.27,-33.43,0,*50
1488989133.64,21903,11.69,73564.3,-5.01,-33.37,-33.49,0,*54
1488989134.85,21904,11.69,73566.5,-5.01,-33.21,-33.37,0,*5D
1488989136.1,21905,11.69,73564.0,-5.01,-33.31,-33.49,0,*54
1488989137.33,21906,11.69,73562.0,-5.01,-33.37,-33.49,0,*51
1488989138.56,21907,11.69,73564.3,-5.01,-33.21,-33.49,0,*57
1488989139.81,21908,11.69,73566.0,-5.03,-33.31,-33.55,0,*56
1488989141.02,21909,11.69,73568.5,-5.01,-33.37,-33.55,0,*53
1488989142.25,21910,11.69,73566.5,-5.03,-33.37,-33.55,0,*59
1488989143.51,21911,11.69,73566.0,-5.03,-33.49,-33.55,0,*51
1488989144.71,21912,11.69,73564.0,-5.01,-33.37,-33.55,0,*59
1488989145.99,21913,11.69,73568.8,-5.03,-33.31,-33.49,0,*51
1488989147.27,21914,11.69,73568.3,-5.03,-33.31,-33.49,0,*56
1488989148.53,21915,11.69,73564.0,-5.03,-33.37,-33.49,0,*51
1488989149.79,21916,11.69,73568.0,-5.03,-33.31,-33.37,0,*5D
1488989151.04,21917,11.69,73570.3,-5.03,-33.31,-33.37,0,*5C
1488989152.27,21918,11.69,73568.3,-5.07,-33.21,-33.21,0,*51
1488989153.51,21919,11.69,73576.3,-5.05,-33.21,-33.27,0,*54
1488989154.77,21920,11.69,73576.0,-5.03,-33.09,-33.37,0,*53
1488989156.01,21921,11.69,73572.0,-5.07,-33.21,-33.37,0,*5C
1488989157.22,21922,11.69,73570.3,-5.05,-33.21,-33.37,0,*5D
1488989158.45,21923,11.69,73570.5,-5.07,-33.15,-33.21,0,*5E
1488989159.68,21924,11.69,73570.3,-5.05,-33.15,-33.27,0,*5D
1488989160.94,21925,11.69,73574.3,-5.07,-33.21,-33.43,0,*5B
1488989162.18,21926,11.69,73570.5,-5.05,-33.21,-33.43,0,*5A
1488989163.45,21927,11.69,73570.5,-5.05,-33.27,-33.43,0,*5D
1488989164.66,21928,11.69,73574.8,-5.05,-33.21,-33.37,0,*57
1488989165.89,21929,11.69,73570.3,-5.07,-33.21,-33.37,0,*54
1488989167.15,21930,11.69,73568.3,-5.07,-33.21,-33.27,0,*5D
1488989168.39,21931,11.69,73562.8,-5.07,-33.21,-33.37,0,*5D
1488989169.61,21932,11.69,73564.0,-5.07,-33.15,-33.21,0,*5E
1488989170.84,21933,11.69,73560.3,-5.07,-33.15,-33.21,0,*5F
1488989172.09,21934,11.69,73562.8,-5.07,-32.97,-33.15,0,*54
1488989173.32,21935,11.69,73562.8,-5.07,-33.03,-33.21,0,*5E
1488989174.53,21936,11.69,73564.8,-5.05,-33.03,-33.15,0,*58
1488989175.76,21937,11.69,73564.3,-5.07,-33.03,-33.03,0,*5C
1488989177.04,21938,11.69,73566.8,-5.07,-32.85,-32.97,0,*50
1488989178.3,21939,11.69,73566.5,-5.07,-33.21,-33.27,0,*54
1488989179.52,21940,11.69,73568.0,-5.07,-33.15,-33.21,0,*5B
1488989180.78,21941,11.69,73570.8,-5.07,-33.15,-33.27,0,*5C
1488989182.04,21942,11.69,73568.0,-5.07,-33.03,-33.27,0,*58
1488989183.27,21943,11.69,73566.5,-5.07,-33.21,-33.37,0,*58
1488989184.5,21944,11.69,73574.3,-5.09,-33.21,-33.31,0,*57
1488989185.74,21945,11.69,73572.3,-5.09,-33.21,-33.43,0,*53
1488989187.02,21946,11.69,73570.0,-5.11,-33.27,-33.31,0,*5A
1488989188.28,21947,11.69,73570.0,-5.09,-33.09,-33.27,0,*59
1488989189.52,21948,11.69,73568.8,-5.09,-33.21,-33.27,0,*5C
1488989190.78,21949,11.69,73570.0,-5.11,-33.21,-33.27,0,*54
1488989192.06,21950,11.69,73570.3,-5.11,-33.27,-33.31,0,*5D
1488989193.34,21951,11.69,73568.8,-5.11,-33.31,-33.49,0,*54
1488989194.6,21952,11.69,73568.0,-5.11,-33.27,-33.37,0,*59
1488989195.86,21953,11.69,73566.5,-5.09,-33.09,-33.27,0,*5C
1488989197.14,21954,11.69,73568.0,-5.11,-33.27,-33.31,0,*59
1488989198.4,21955,11.69,73564.8,-5.11,-33.31,-33.37,0,*59
1488989199.65,21956,11.69,73574.0,-5.11,-33.27,-33.37,0,*5D
1488989200.89,21957,11.69,73574.3,-5.09,-33.27,-33.21,0,*52
1488989202.14,21958,11.69,73566.3,-5.11,-33.27,-33.37,0,*53
1488989203.4,21959,11.69,73570.0,-5.11,-33.09,-33.15,0,*5E
1488989204.68,21960,11.69,73570.3,-5.11,-32.97,-33.27,0,*53
1488989205.94,21961,11.69,73572.3,-5.11,-33.09,-33.15,0,*55
1488989207.22,21962,11.69,73570.3,-5.11,-33.09,-33.27,0,*57
1488989208.45,21963,11.69,73568.3,-5.13,-33.15,-33.27,0,*59
1488989209.66,21964,11.69,73572.8,-5.13,-33.15,-33.15,0,*5F
1488989210.94,21965,11.69,73570.0,-5.11,-33.09,-33.27,0,*50
1488989212.22,21966,11.69,73568.3,-5.11,-32.97,-33.09,0,*59
1488989213.45,21967,11.69,73568.8,-5.11,-32.91,-32.91,0,*5E
1488989214.71,21968,11.69,73570.0,-5.13,-32.79,-32.79,0,*53
1488989215.95,21969,11.69,73570.8,-5.13,-32.79,-32.91,0,*54
1488989217.23,21970,11.69,73568.3,-5.11,-32.75,-32.79,0,*54
1488989218.5,21971,11.69,73568.3,-5.11,-32.75,-32.91,0,*53
1488989219.76,21972,11.69,73572.3,-5.11,-32.79,-32.91,0,*5C
1488989221.03,21973,11.69,73570.0,-5.11,-32.97,-32.97,0,*5B
1488989222.31,21974,11.69,73574.3,-5.11,-33.09,-33.09,0,*5C
1488989223.57,21975,11.69,73574.5,-5.13,-33.09,-33.27,0,*53
1488989224.8,21976,11.69,73570.0,-5.11,-33.15,-33.15,0,*5E
1488989226.09,21977,11.69,73572.5,-5.11,-32.75,-32.79,0,*53
1488989227.35,21978,11.69,73568.3,-5.11,-32.79,-32.91,0,*56
1488989228.63,21979,11.69,73564.0,-5.11,-32.79,-32.97,0,*51
1488989229.91,21980,11.69,73568.5,-5.11,-32.79,-32.97,0,*57
1488989231.15,21981,11.69,73564.5,-5.11,-32.91,-32.97,0,*50
1488989232.42,21982,11.69,73564.5,-5.11,-32.79,-32.91,0,*53
1488989233.64,21983,11.69,73564.8,-5.13,-32.91,-33.09,0,*56
1488989234.9,21984,11.69,73564.8,-5.11,-33.15,-33.27,0,*52
1488989236.16,21985,11.69,73568.3,-5.11,-33.15,-33.27,0,*53
1488989237.41,21986,11.69,73568.3,-5.11,-33.31,-33.37,0,*57
1488989238.69,21987,11.69,73566.3,-5.11,-33.27,-33.49,0,*58
1488989239.95,21988,11.69,73562.5,-5.11,-33.31,-33.37,0,*59
1488989241.18,21989,11.69,73566.0,-5.13,-33.31,-33.55,0,*5E
1488989242.41,21990,11.69,73566.5,-5.17,-33.31,-33.55,0,*52
1488989243.68,21991,11.69,73564.0,-5.13,-33.09,-33.27,0,*59
1488989244.91,21992,11.69,73564.8,-5.17,-33.37,-33.31,0,*54
1488989246.15,21993,11.69,73564.8,-5.17,-33.37,-33.43,0,*50
1488989247.37,21994,11.69,73570.3,-5.17,-33.37,-33.37,0,*54
1488989248.6,21995,11.69,73570.0,-5.17,-33.31,-33.37,0,*53
1488989249.84,21996,11.69,73568.8,-5.17,-33.21,-33.31,0,*57
1488989251.04,21997,11.69,73570.8,-5.17,-33.15,-33.15,0,*57
1488989252.27,21998,11.69,73570.8,-5.17,-32.97,-33.15,0,*53
1488989253.53,21999,11.69,73572.3,-5.19,-33.03,-33.09,0,*5D
1488989254.76,22000,11.69,73568.3,-5.17,-32.97,-33.15,0,*58
1488989256.02,22001,11.69,73568.3,-5.19,-33.09,-33.21,0,*56
1488989257.24,22002,11.69,73570.3,-5.17,-32.97,-33.03,0,*5D
1488989258.47,22003,11.69,73570.0,-5.13,-32.91,-32.97,0,*52
1488989259.68,22004,11.69,73570.0,-5.13,-32.91,-32.91,0,*53
1488989260.9,22005,11.69,73570.0,-5.17,-33.03,-32.97,0,*5A
1488989262.11,22006,11.69,73568.3,-5.17,-33.15,-33.15,0,*55
1488989263.37,22007,11.69,73568.8,-5.19,-33.03,-33.09,0,*50
1488989264.57,22008,11.69,73568.8,-5.17,-33.03,-33.03,0,*5B
1488989265.78,22009,11.69,73572.5,-5.17,-33.03,-33.03,0,*5A
1488989267.04,22010,11.69,73574.5,-5.19,-33.03,-33.09,0,*56
1488989268.27,22011,11.69,73574.5,-5.19,-32.91,-33.03,0,*57
1488989269.5,22012,11.69,73574.0,-5.19,-32.91,-33.03,0,*54
1488989270.78,22013,11.69,73574.0,-5.19,-33.09,-33.09,0,*5F
1488989272.04,22014,11.69,73572.5,-5.19,-33.03,-33.09,0,*52
1488989273.27,22015,11.69,73572.0,-5.17,-32.97,-33.03,0,*5B
1488989274.48,22016,11.69,73574.8,-5.17,-33.03,-33.03,0,*54
1488989275.71,22017,11.69,73572.3,-5.17,-33.09,-33.15,0,*58
1488989276.97,22018,11.69,73572.0,-5.19,-33.03,-33.09,0,*5E
1488989278.23,22019,11.69,73572.3,-5.19,-33.09,-33.21,0,*5F
1488989279.48,22020,11.69,73572.0,-5.19,-33.03,-33.09,0,*55
1488989280.72,22021,11.69,73572.0,-5.21,-33.21,-33.09,0,*5F
1488989281.98,22022,11.69,73570.3,-5.21,-33.09,-33.09,0,*56
1488989283.24,22023,11.69,73574.8,-5.19,-33.09,-33.21,0,*56
1488989284.45,22024,11.69,73568.8,-5.17,-33.03,-33.15,0,*52
1488989285.65,22025,11.69,73572.3,-5.17,-33.03,-33.15,0,*53
1488989286.91,22026,11.69,73568.0,-5.19,-33.03,-33.09,0,*53
1488989288.14,22027,11.69,73570.3,-5.19,-32.91,-33.03,0,*52
1488989289.4,22028,11.69,73572.8,-5.19,-32.85,-32.91,0,*52
1488989290.69,22029,11.69,73570.5,-5.19,-32.85,-33.09,0,*53
1488989291.9,22030,11.69,73570.5,-5.21,-32.91,-32.91,0,*55
1488989293.16,22031,11.69,73570.5,-5.19,-32.85,-32.91,0,*5A
1488989294.42,22032,11.69,73574.0,-5.19,-32.75,-32.91,0,*56
1488989295.65,22033,11.69,73572.0,-5.19,-32.91,-32.91,0,*5D
1488989296.91,22034,11.69,73574.5,-5.19,-32.85,-32.91,0,*5F
1488989298.15,22035,11.69,73574.0,-5.19,-33.03,-33.03,0,*5B
1488989299.4,22036,11.69,73570.8,-5.19,-32.91,-33.09,0,*58